TIME,DELAY(SENSOR),PRES,OXYGEN,RAWTEMP,T(OPTODE),TCPHASE,FLUOR,BETA(BETA700),BETA(BETA412),BETA(BETA440),CDOM,C(CSC),ED(ED412.40),ED(ED444.00),ED(ED489.70),ED(ED554.30),LU(LU411.80),LU(LU443.40),LU(LU489.60),LU(LU554.10),COMP,TILTX,TILTY,CHECK
1381118668,5805,835.9299926757812000,45.0016288757324200,659.8817749023438000,4.6318631172180180,54.2559814453125000,52,98,85,80,78,15263,2147753929,2147423762,2148012278,2147874486,2147639360,2147055972,2148259547,2147197302,1260,4,13,34237
1381122265,5810,890.4400024414062000,49.0984115600585940,667.4282836914062000,4.3831119537353520,53.7620506286621100,53,98,83,78,78,15266,2147759076,2147425334,2148011172,2147871780,2147640173,2147055241,2148261952,2147199789,99,4,13,55593
1381125865,5808,897.6400146484375000,49.9460716247558600,670.1727294921875000,4.2924919128417970,53.6758193969726560,52,98,85,79,79,15266,2147755154,2147427410,2148014262,2147873243,2147639652,2147055424,2148261988,2147198985,182,4,13,44904
1381129465,5809,928.3099975585938000,50.8864593505859400,670.6809082031250000,4.2757019996643070,53.5574111938476560,51,97,85,79,78,15266,2147757696,2147422171,2148013366,2147876041,2147643291,2147052662,2148266898,2147198281,162,4,13,5059
1381133065,5808,938.3699951171875000,50.4982414245605500,670.9218750000000000,4.2677378654479980,53.6100997924804700,53,100,84,78,78,15266,2147754221,2147425014,2148011739,2147872018,2147638628,2147053156,2148262555,2147200027,3328,4,13,26737
1381136665,5808,938.5999755859375000,50.5126800537109400,670.8718872070312000,4.2693920135498050,53.6091308593750000,53,96,88,79,77,15265,2147757860,2147425472,2148012178,2147872274,2147642605,2147052818,2148266962,2147198884,3560,4,13,15502
1381140265,5811,969.5000000000000000,51.4421997070312500,673.7208251953125000,4.1752052307128910,53.5192909240722660,52,97,82,78,78,15267,2147750994,2147426605,2148012827,2147873801,2147640411,2147058505,2148263762,2147195328,192,4,13,32871
1381143865,5810,973.5100097656250000,51.3607101440429700,673.1685791015625000,4.1934700012207030,53.5207214355468750,51,101,84,79,78,15265,2147755730,2147423360,2148011437,2147874669,2147641792,2147055040,2148265801,2147197504,3522,3,13,22769
1381147465,5806,978.3499755859375000,51.2915611267089840,672.5338745117188000,4.2144551277160645,53.5233383178710940,52,98,84,78,79,15266,2147756470,2147427666,2148011273,2147873664,2147640338,2147060617,2148263369,2147196342,3544,4,13,47754
1381151065,5810,973.1199951171875000,51.2157592773437500,673.4263916015625000,4.1849441528320310,53.5474891662597660,52,104,84,79,78,15266,2147755520,2147425499,2148012480,2147874907,2147639588,2147051638,2148263963,2147196726,284,4,13,12392
1381154665,5807,973.7199707031250000,51.4480209350585940,673.9860839843750000,4.1664299964904785,53.5221710205078100,53,97,84,78,79,15266,2147758902,2147426395,2148012397,2147875821,2147642870,2147054326,2148259273,2147197522,137,4,13,34704
1381158265,5808,977.5399780273438000,51.3609809875488300,673.9688720703125000,4.1669998168945310,53.5370407104492200,52,98,86,78,79,15267,2147757476,2147425334,2148014299,2147874816,2147641353,2147051812,2148258834,2147199040,30,4,13,37355
1381161865,5810,968.3300170898438000,51.6838188171386700,674.7872924804688000,4.1399250030517580,53.5003089904785160,53,99,89,79,79,15264,2147758052,2147427401,2148012022,2147875154,2147640978,2147053138,2148266340,2147196790,3282,3,13,25257
1381165465,5808,982.3599853515625000,51.7293586730957000,674.4248046875000000,4.1519179344177250,53.4933891296386700,52,96,83,79,78,15261,2147758464,2147426989,2148009481,2147875830,2147641920,2147053668,2148264777,2147192923,3091,4,13,52278
1381169065,5810,973.8099975585938000,51.2054481506347660,674.0593261718750000,4.1640090942382810,53.5545883178710940,52,98,82,79,79,15260,2147757476,2147425974,2148012690,2147876361,2147640978,2147054528,2148262857,2147198006,227,3,13,26362
1381172665,5811,974.5200195312500000,51.2955398559570300,674.9738159179688000,4.1337552070617680,53.5547904968261700,53,102,85,77,79,15261,2147756800,2147427648,2148011830,2147876434,2147645604,2147053924,2148261540,2147198948,3477,4,13,17104
1381176265,5806,981.7299804687500000,51.4287605285644500,673.9671020507812000,4.1670608520507810,53.5267601013183600,52,96,85,78,79,15262,2147759332,2147428827,2148012233,2147874322,2147641618,2147055917,2148265993,2147200448,318,4,13,2992
1381179865,5809,982.3800048828125000,51.1519317626953100,673.6265258789062000,4.1783261299133300,53.5560684204101560,53,97,84,79,78,15257,2147758281,2147424146,2148012836,2147870692,2147641097,2147054427,2148262838,2147193206,3434,4,13,18544
1381183465,5809,982.4299926757812000,50.9763183593750000,673.4904174804688000,4.1828269958496090,53.5801086425781250,52,98,84,78,79,15262,2147757257,2147423305,2148015350,2147876589,2147643364,2147059465,2148267684,2147197677,151,4,13,13601
1381187065,5810,989.7299804687500000,50.1114311218261700,672.7589111328125000,4.2070159912109375,53.6874313354492200,52,97,81,78,78,15261,2147756918,2147424146,2148013769,2147873124,2147640704,2147051428,2148262144,2147198747,90,4,13,34380
1381190665,5810,988.9099731445312000,50.1618690490722660,672.0222778320312000,4.2313690185546875,53.6752700805664060,52,99,83,80,79,15262,2147753819,2147424384,2148013056,2147873060,2147641298,2147053257,2148270838,2147197668,498,4,13,61636
1381194265,5810,986.7299804687500000,50.1909599304199200,672.0161743164062000,4.2315731048583980,53.6671218872070300,52,97,87,78,79,15260,2147756178,2147424530,2148013485,2147875446,2147641289,2147052644,2148263506,2147197074,323,4,13,52659
1381197865,5809,973.6900024414062000,50.5867881774902340,673.5753784179688000,4.1800169944763180,53.6374015808105500,52,99,86,78,78,15259,2147758116,2147425709,2148012205,2147874944,2147641417,2147052160,2148266285,2147201462,213,4,13,61426
1381201465,5808,981.1199951171875000,51.3979187011718750,674.9802246093750000,4.1335430145263670,53.5436706542968750,53,98,86,78,78,15157,2147758464,2147424246,2148010825,2147876105,2147644736,2147056978,2148273472,2147196672,115,4,13,35466
1381205065,5806,981.0399780273438000,50.9611282348632800,675.0338134765625000,4.1317691802978520,53.6008605957031250,52,99,87,79,77,15156,2147756672,2147423917,2148010258,2147873755,2147642468,2147053760,2148264420,2147197092,201,3,13,15193
1381208665,5810,975.0000000000000000,50.7858390808105500,675.5452880859375000,4.1148400306701660,53.6345100402832000,53,96,82,78,79,15155,2147759177,2147425344,2148012562,2147877458,2147642998,2147055268,2148263158,2147199177,3583,3,13,9600
1381212265,5808,982.0499877929688000,51.0289382934570300,675.3352050781250000,4.1217942237854000,53.5957298278808600,52,99,83,79,79,15148,2147759213,2147427419,2148012754,2147877184,2147644114,2147055753,2148264045,2147196059,3498,4,13,5446
1381215865,5810,976.8800048828125000,50.9371185302734400,675.2888793945312000,4.1233267784118650,53.6099700927734400,51,99,86,78,80,15155,2147759305,2147425956,2148009755,2147876864,2147643337,2147056054,2148262418,2147198153,3508,4,13,49949
1381219465,5810,983.4799804687500000,51.3184700012207000,674.7907714843750000,4.1398091316223145,53.5501289367675800,52,99,87,78,78,15156,2147759131,2147424502,2148011209,2147876004,2147639945,2147052416,2148262701,2147198098,500,4,13,38120
1381223065,5807,975.2800292968750000,51.1937904357910160,676.2048950195312000,4.0930080413818360,53.5813598632812500,52,99,82,78,79,15149,2147760630,2147425453,2148012342,2147873481,2147638656,2147051638,2148263094,2147198454,745,4,13,37378
1381226665,5809,985.8400268554688000,51.4026718139648440,675.1340942382812000,4.1284480094909670,53.5425300598144500,52,97,82,77,77,15155,2147759524,2147425142,2148010130,2147875190,2147643529,2147055634,2148260544,2147195602,3341,4,13,47747
1381230265,5809,980.5700073242188000,50.8526611328125000,674.9082031250000000,4.1359229087829590,53.6167106628418000,52,98,87,79,78,15148,2147754651,2147424704,2148015460,2147869888,2147642340,2147051190,2148260653,2147196553,50,4,13,25845
1381233865,5808,988.6900024414062000,51.0727882385253900,674.3101196289062000,4.1557121276855470,53.5753211975097660,52,97,83,78,79,15151,2147757019,2147426358,2148010313,2147874578,2147641243,2147055844,2148260946,2147197138,3331,4,13,45656
1381237465,5808,986.0599975585938000,50.6894302368164060,674.3768920898438000,4.1535029411315920,53.6282997131347660,52,98,87,77,78,15151,2147759488,2147423478,2148011501,2147876096,2147638144,2147055926,2148258907,2147196425,151,4,13,24419
1381241065,5812,982.4199829101562000,51.2250289916992200,674.9530029296875000,4.1344408988952640,53.5655097961425800,52,96,84,77,78,15152,2147759213,2147425188,2148012516,2147871771,2147645138,2147053458,2148259949,2147198756,3174,4,13,16358
1381244665,5809,983.2299804687500000,50.6518707275390600,675.2957763671875000,4.1230959892272950,53.6469612121582000,52,96,86,78,79,15153,2147757741,2147425920,2148013074,2147871835,2147640758,2147049472,2148257883,2147194724,160,4,13,34441
1381248265,5810,978.1799926757812000,50.6403694152832000,676.1232299804688000,4.0957112312316895,53.6585884094238300,52,98,85,79,78,15121,2147759990,2147425526,2148013412,2147873298,2147644269,2147054326,2148267346,2147197440,208,4,13,42782
1381251865,5807,981.0599975585938000,50.2129898071289060,676.1856079101562000,4.0936470031738280,53.7156295776367200,51,97,83,79,79,15150,2147762048,2147426998,2148011547,2147877092,2147640466,2147054198,2148264365,2147196480,190,4,13,23871
1381255465,5810,985.8400268554688000,51.2124214172363300,674.8106079101562000,4.1391530036926270,53.5619392395019500,52,98,86,78,79,15151,2147758427,2147426148,2148010825,2147876544,2147642331,2147055707,2148266779,2147196635,18,4,13,973
1381259065,5810,988.8599853515625000,50.5048484802246100,674.4442749023438000,4.1512718200683590,53.6591796875000000,52,98,86,78,79,15149,2147760128,2147427072,2148013906,2147873581,2147639963,2147058038,2148264960,2147194422,113,4,13,12695
1381262155,5810,987.9099731445312000,50.6207504272460940,674.6087036132812000,4.1458339691162110,53.6461296081543000,53,97,85,80,78,15263,2147758381,2147426706,2148014052,2147873956,2147642377,2147059949,2148263058,2147197897,352,4,13,30895
